| time (UTC) | temp F | wind direction | speed MPH | gust MPH | rain 1hr in | rain 24hr in | rain mn in | humidity % | barometer mb |
| 20260505092522 | 62 | 233 | 6.0 | 8.0 | 0.00 | 0.00 | 0.00 | 71 | 1007.6 |
| 20260505092020 | 62 | 244 | 5.0 | 7.0 | 0.00 | 0.00 | 0.00 | 71 | 1007.6 |
| 20260505091516 | 63 | 220 | 5.0 | 11.0 | 0.00 | 0.00 | 0.00 | 70 | 1007.4 |
| 20260505091014 | 63 | 260 | 7.0 | 11.0 | 0.00 | 0.00 | 0.00 | 70 | 1007.6 |
| 20260505090512 | 63 | 211 | 5.0 | 11.0 | 0.00 | 0.00 | 0.00 | 70 | 1007.5 |
| 20260505090010 | 63 | 256 | 5.0 | 9.0 | 0.00 | 0.00 | 0.00 | 69 | 1007.3 |
| 20260505085508 | 63 | 206 | 3.0 | 8.0 | 0.00 | 0.00 | 0.00 | 69 | 1007.4 |
| 20260505085006 | 63 | 211 | 4.0 | 9.0 | 0.00 | 0.00 | 0.00 | 69 | 1007.3 |
| 20260505084504 | 64 | 204 | 6.0 | 11.0 | 0.00 | 0.00 | 0.00 | 69 | 1007.2 |
| 20260505084001 | 64 | 219 | 3.0 | 7.0 | 0.00 | 0.00 | 0.00 | 69 | 1007.1 |
| 20260505083458 | 64 | 230 | 7.0 | 9.0 | 0.00 | 0.00 | 0.00 | 68 | 1007.2 |
| 20260505082954 | 64 | 237 | 9.0 | 16.0 | 0.00 | 0.00 | 0.00 | 66 | 1007.1 |
| 20260505082450 | 63 | 248 | 4.0 | 8.0 | 0.00 | 0.00 | 0.00 | 70 | 1007.1 |
| 20260505081947 | 63 | 218 | 4.0 | 7.0 | 0.00 | 0.00 | 0.00 | 71 | 1007.1 |
| 20260505081444 | 63 | 231 | 5.0 | 9.0 | 0.00 | 0.00 | 0.00 | 72 | 1006.8 |
| 20260505080941 | 64 | 182 | 5.0 | 10.0 | 0.00 | 0.00 | 0.00 | 72 | 1006.8 |
| 20260505080437 | 64 | 212 | 4.0 | 9.0 | 0.00 | 0.00 | 0.00 | 69 | 1006.8 |
| 20260505075932 | 64 | 215 | 6.0 | 10.0 | 0.00 | 0.00 | 0.00 | 69 | 1006.8 |
| 20260505075429 | 65 | 212 | 6.0 | 15.0 | 0.00 | 0.00 | 0.00 | 67 | 1006.9 |
| 20260505074927 | 65 | 206 | 7.0 | 11.0 | 0.00 | 0.00 | 0.00 | 65 | 1006.4 |
| 20260505074424 | 65 | 204 | 6.0 | 9.0 | 0.00 | 0.00 | 0.00 | 66 | 1006.5 |
| 20260505073921 | 65 | 221 | 4.0 | 10.0 | 0.00 | 0.00 | 0.00 | 67 | 1006.7 |
| 20260505073419 | 65 | 229 | 4.0 | 8.0 | 0.00 | 0.00 | 0.00 | 66 | 1006.9 |
| 20260505072916 | 66 | 236 | 5.0 | 23.0 | 0.00 | 0.00 | 0.00 | 65 | 1006.8 |
| 20260505072412 | 66 | 243 | 4.0 | 9.0 | 0.00 | 0.00 | 0.00 | 63 | 1006.5 |
| 20260505071908 | 66 | 207 | 4.0 | 14.0 | 0.00 | 0.00 | 0.00 | 62 | 1006.3 |
| 20260505071404 | 66 | 275 | 6.0 | 8.0 | 0.00 | 0.00 | 0.00 | 62 | 1006.3 |
| 20260505070903 | 66 | 242 | 6.0 | 9.0 | 0.00 | 0.00 | 0.00 | 62 | 1006.3 |
| 20260505070358 | 66 | 203 | 1.0 | 6.0 | 0.00 | 0.00 | 0.00 | 62 | 1006.2 |
| 20260505065854 | 67 | 216 | 7.0 | 10.0 | 0.00 | 0.00 | 0.00 | 61 | 1006.4 |
| 20260505065351 | 67 | 207 | 4.0 | 9.0 | 0.00 | 0.00 | 0.00 | 62 | 1006.3 |
| 20260505064848 | 66 | 205 | 6.0 | 11.0 | 0.00 | 0.00 | 0.00 | 62 | 1006.4 |
| 20260505064345 | 67 | 165 | 3.0 | 9.0 | 0.00 | 0.00 | 0.00 | 62 | 1006.3 |
| 20260505063843 | 67 | 185 | 3.0 | 11.0 | 0.00 | 0.00 | 0.00 | 62 | 1006.2 |
| 20260505063339 | 67 | 189 | 4.0 | 10.0 | 0.00 | 0.00 | 0.00 | 62 | 1006.3 |
| 20260505062836 | 66 | 187 | 4.0 | 10.0 | 0.00 | 0.00 | 0.00 | 62 | 1006.3 |
| 20260505062333 | 67 | 174 | 6.0 | 14.0 | 0.00 | 0.00 | 0.00 | 62 | 1006.3 |
| 20260505061830 | 66 | 246 | 4.0 | 10.0 | 0.00 | 0.00 | 0.00 | 64 | 1006.4 |
| 20260505061328 | 66 | 184 | 1.0 | 4.0 | 0.00 | 0.00 | 0.00 | 64 | 1006.4 |
| 20260505060825 | 66 | 188 | 2.0 | 7.0 | 0.00 | 0.00 | 0.00 | 64 | 1006.5 |
| 20260505060322 | 65 | 176 | 2.0 | 7.0 | 0.00 | 0.00 | 0.00 | 65 | 1006.6 |
| 20260505055817 | 65 | 159 | 2.0 | 4.0 | 0.00 | 0.00 | 0.00 | 66 | 1006.5 |
| 20260505055314 | 65 | 229 | 6.0 | 11.0 | 0.00 | 0.00 | 0.00 | 66 | 1006.6 |
| 20260505054812 | 64 | 170 | 2.0 | 4.0 | 0.00 | 0.00 | 0.00 | 68 | 1006.7 |
| 20260505054309 | 64 | 220 | 4.0 | 6.0 | 0.00 | 0.00 | 0.00 | 70 | 1006.6 |
| 20260505053807 | 64 | 163 | 1.0 | 2.0 | 0.00 | 0.00 | 0.00 | 70 | 1006.9 |
| 20260505053304 | 64 | 186 | 1.0 | 3.0 | 0.00 | 0.00 | 0.00 | 71 | 1006.9 |
| 20260505052800 | 64 | 158 | 4.0 | 8.0 | 0.00 | 0.00 | 0.00 | 71 | 1006.8 |
| 20260505052257 | 64 | 179 | 2.0 | 3.0 | 0.00 | 0.00 | 0.00 | 72 | 1007.1 |
| 20260505051754 | 63 | 175 | 2.0 | 3.0 | 0.00 | 0.00 | 0.00 | 72 | 1007.0 |
| 20260505051252 | 63 | 198 | 3.0 | 6.0 | 0.00 | 0.00 | 0.00 | 72 | 1007.1 |
| 20260505050750 | 63 | 185 | 3.0 | 7.0 | 0.00 | 0.00 | 0.00 | 72 | 1007.1 |
| 20260505050248 | 63 | 177 | 2.0 | 4.0 | 0.00 | 0.00 | 0.00 | 72 | 1007.2 |
| 20260505041718 | 65 | 171 | 5.0 | 7.0 | 0.00 | 0.00 | 0.00 | 70 | 1007.3 |
| 20260505041215 | 65 | 127 | 1.0 | 8.0 | 0.00 | 0.00 | 0.00 | 70 | 1007.2 |
| 20260505040712 | 65 | 192 | 2.0 | 6.0 | 0.00 | 0.00 | 0.00 | 71 | 1007.2 |
| 20260505040209 | 65 | 227 | 2.0 | 4.0 | 0.00 | 0.00 | 0.00 | 71 | 1007.0 |
| 20260505035706 | 65 | 189 | 2.0 | 2.0 | 0.00 | 0.00 | 0.00 | 71 | 1007.1 |
| 20260505035202 | 65 | 187 | 4.0 | 6.0 | 0.00 | 0.00 | 0.00 | 70 | 1007.2 |
| 20260505034659 | 65 | 220 | 1.0 | 2.0 | 0.00 | 0.00 | 0.00 | 71 | 1007.0 |
| 20260505034156 | 65 | 197 | 2.0 | 7.0 | 0.00 | 0.00 | 0.00 | 71 | 1007.2 |
| 20260505033652 | 65 | 210 | 4.0 | 8.0 | 0.00 | 0.00 | 0.00 | 70 | 1007.1 |
| 20260505033151 | 65 | 225 | 2.0 | 7.0 | 0.00 | 0.00 | 0.00 | 70 | 1007.3 |
| 20260505032649 | 65 | 172 | 2.0 | 6.0 | 0.00 | 0.00 | 0.00 | 71 | 1007.3 |
| 20260505032144 | 65 | 183 | 0.0 | 4.0 | 0.00 | 0.00 | 0.00 | 71 | 1007.2 |
| 20260505031642 | 65 | 178 | 1.0 | 4.0 | 0.00 | 0.00 | 0.00 | 71 | 1007.2 |
| 20260505031137 | 65 | 178 | 1.0 | 2.0 | 0.00 | 0.00 | 0.00 | 71 | 1007.1 |
| 20260505030629 | 65 | 148 | 1.0 | 6.0 | 0.00 | 0.00 | 0.00 | 71 | 1007.0 |
| 20260505030125 | 65 | 183 | 2.0 | 7.0 | 0.00 | 0.00 | 0.00 | 70 | 1007.2 |
| 20260505025621 | 65 | 215 | 0.0 | 3.0 | 0.00 | 0.00 | 0.00 | 71 | 1007.1 |
| 20260505025120 | 64 | 195 | 1.0 | 6.0 | 0.00 | 0.00 | 0.00 | 71 | 1007.3 |
| 20260505024617 | 64 | 178 | 1.0 | 3.0 | 0.00 | 0.00 | 0.00 | 72 | 1007.0 |
| 20260505024114 | 64 | 174 | 0.0 | 3.0 | 0.00 | 0.00 | 0.00 | 72 | 1007.3 |
| 20260505023612 | 64 | 192 | 1.0 | 3.0 | 0.00 | 0.00 | 0.00 | 72 | 1007.1 |
| 20260505023109 | 64 | 178 | 1.0 | 3.0 | 0.00 | 0.00 | 0.00 | 73 | 1007.2 |
| 20260505022606 | 64 | 158 | 2.0 | 3.0 | 0.00 | 0.00 | 0.00 | 73 | 1007.1 |
| 20260505022103 | 64 | 166 | 0.0 | 1.0 | 0.00 | 0.00 | 0.00 | 74 | 1007.2 |
| 20260505021600 | 64 | 186 | 0.0 | 2.0 | 0.00 | 0.00 | 0.00 | 72 | 1007.3 |
| 20260505021057 | 64 | 195 | 0.0 | 2.0 | 0.00 | 0.00 | 0.00 | 72 | 1007.1 |
| 20260505020556 | 64 | 163 | 0.0 | 1.0 | 0.00 | 0.00 | 0.00 | 72 | 1007.1 |
| 20260505020054 | 64 | 152 | 1.0 | 4.0 | 0.00 | 0.00 | 0.00 | 72 | 1006.9 |
| 20260505015550 | 64 | 175 | 1.0 | 6.0 | 0.00 | 0.00 | 0.00 | 72 | 1006.9 |
| 20260505015047 | 64 | 155 | 3.0 | 3.0 | 0.00 | 0.00 | 0.00 | 73 | 1007.0 |
| 20260505014544 | 64 | 158 | 0.0 | 0.0 | 0.00 | 0.00 | 0.00 | 73 | 1007.1 |
| 20260505014041 | 64 | 177 | 0.0 | 3.0 | 0.00 | 0.00 | 0.00 | 72 | 1007.0 |
| 20260505013538 | 64 | 211 | 2.0 | 2.0 | 0.00 | 0.00 | 0.00 | 72 | 1007.0 |
| 20260505013036 | 64 | 170 | 0.0 | 2.0 | 0.00 | 0.00 | 0.00 | 73 | 1007.0 |
| 20260505012534 | 63 | 156 | 1.0 | 2.0 | 0.00 | 0.00 | 0.00 | 74 | 1007.0 |
| 20260505012030 | 63 | 178 | 1.0 | 3.0 | 0.00 | 0.00 | 0.00 | 73 | 1007.1 |
| 20260505011526 | 64 | 196 | 2.0 | 2.0 | 0.00 | 0.00 | 0.00 | 73 | 1006.8 |
| 20260505011023 | 64 | 124 | 2.0 | 2.0 | 0.00 | 0.00 | 0.00 | 72 | 1006.9 |
| 20260505010519 | 63 | 164 | 2.0 | 2.0 | 0.00 | 0.00 | 0.00 | 73 | 1006.8 |
| 20260505010016 | 64 | 156 | 1.0 | 3.0 | 0.00 | 0.00 | 0.00 | 72 | 1006.9 |
| 20260505005512 | 64 | 174 | 2.0 | 3.0 | 0.00 | 0.00 | 0.00 | 72 | 1006.9 |
| 20260505005010 | 64 | 104 | 1.0 | 2.0 | 0.00 | 0.00 | 0.00 | 72 | 1007.0 |
| 20260505004506 | 64 | 163 | 1.0 | 2.0 | 0.00 | 0.00 | 0.00 | 71 | 1006.9 |
| 20260505004003 | 64 | 177 | 0.0 | 1.0 | 0.00 | 0.00 | 0.00 | 71 | 1006.9 |
| 20260505003500 | 64 | 184 | 0.0 | 2.0 | 0.00 | 0.00 | 0.00 | 71 | 1006.7 |
| 20260505002956 | 65 | 174 | 0.0 | 1.0 | 0.00 | 0.00 | 0.00 | 71 | 1006.6 |
| 20260505002452 | 65 | 166 | 1.0 | 2.0 | 0.00 | 0.00 | 0.00 | 70 | 1006.7 |
| 20260505001951 | 65 | 194 | 2.0 | 4.0 | 0.00 | 0.00 | 0.00 | 69 | 1006.9 |
| 20260505001448 | 65 | 194 | 1.0 | 2.0 | 0.00 | 0.00 | 0.00 | 69 | 1006.8 |
| 20260505000945 | 65 | 189 | 0.0 | 3.0 | 0.00 | 0.00 | 0.00 | 68 | 1006.7 |
| 20260505000443 | 66 | 183 | 2.0 | 4.0 | 0.00 | 0.00 | 0.00 | 67 | 1006.7 |
| 20260504235940 | 66 | 178 | 0.0 | 2.0 | 0.00 | 0.00 | 0.00 | 67 | 1006.6 |
| 20260504235437 | 66 | 206 | 3.0 | 3.0 | 0.00 | 0.00 | 0.00 | 65 | 1006.7 |
| 20260504234933 | 66 | 116 | 2.0 | 6.0 | 0.00 | 0.00 | 0.00 | 65 | 1006.7 |
| 20260504234431 | 66 | 187 | 2.0 | 8.0 | 0.00 | 0.00 | 0.00 | 64 | 1006.8 |
| 20260504233927 | 67 | 179 | 3.0 | 4.0 | 0.00 | 0.00 | 0.00 | 63 | 1006.9 |
| 20260504233423 | 67 | 205 | 4.0 | 7.0 | 0.00 | 0.00 | 0.00 | 63 | 1006.8 |
| 20260504232920 | 67 | 237 | 6.0 | 11.0 | 0.00 | 0.00 | 0.00 | 62 | 1006.7 |
| 20260504232417 | 67 | 173 | 4.0 | 9.0 | 0.00 | 0.00 | 0.00 | 63 | 1007.0 |
| 20260504231914 | 67 | 237 | 5.0 | 8.0 | 0.00 | 0.00 | 0.00 | 61 | 1007.0 |
| 20260504231410 | 68 | 169 | 1.0 | 7.0 | 0.00 | 0.00 | 0.00 | 61 | 1006.8 |
| 20260504230907 | 69 | 185 | 2.0 | 11.0 | 0.00 | 0.00 | 0.00 | 60 | 1007.1 |
| 20260504230404 | 69 | 196 | 6.0 | 9.0 | 0.00 | 0.00 | 0.00 | 59 | 1007.2 |
| 20260504225903 | 68 | 184 | 5.0 | 7.0 | 0.00 | 0.00 | 0.00 | 58 | 1007.2 |
| 20260504225359 | 68 | 143 | 4.0 | 9.0 | 0.00 | 0.00 | 0.00 | 59 | 1007.2 |
| 20260504224856 | 68 | 192 | 4.0 | 10.0 | 0.00 | 0.00 | 0.00 | 58 | 1007.1 |
| 20260504224353 | 69 | 233 | 6.0 | 13.0 | 0.00 | 0.00 | 0.00 | 57 | 1007.1 |
| 20260504223850 | 69 | 183 | 4.0 | 6.0 | 0.00 | 0.00 | 0.00 | 57 | 1006.9 |
| 20260504223345 | 69 | 164 | 2.0 | 8.0 | 0.00 | 0.00 | 0.00 | 56 | 1007.0 |
| 20260504222842 | 69 | 180 | 4.0 | 11.0 | 0.00 | 0.00 | 0.00 | 56 | 1007.1 |
| 20260504222339 | 70 | 212 | 7.0 | 18.0 | 0.00 | 0.00 | 0.00 | 54 | 1007.1 |
| 20260504221837 | 70 | 221 | 6.0 | 11.0 | 0.00 | 0.00 | 0.00 | 53 | 1007.0 |
| 20260504221334 | 72 | 196 | 8.0 | 16.0 | 0.00 | 0.00 | 0.00 | 52 | 1007.1 |
| 20260504220831 | 73 | 265 | 7.0 | 11.0 | 0.00 | 0.00 | 0.00 | 53 | 1007.2 |
| 20260504220327 | 72 | 203 | 3.0 | 6.0 | 0.00 | 0.00 | 0.00 | 54 | 1006.9 |
| 20260504215825 | 72 | 218 | 7.0 | 15.0 | 0.00 | 0.00 | 0.00 | 54 | 1007.0 |
| 20260504215321 | 72 | 216 | 8.0 | 15.0 | 0.00 | 0.00 | 0.00 | 52 | 1006.9 |
| 20260504214817 | 71 | 207 | 3.0 | 8.0 | 0.00 | 0.00 | 0.00 | 57 | 1007.0 |
| 20260504214314 | 70 | 259 | 6.0 | 8.0 | 0.00 | 0.00 | 0.00 | 57 | 1006.8 |
| 20260504213811 | 71 | 206 | 5.0 | 10.0 | 0.00 | 0.00 | 0.00 | 56 | 1006.9 |
| 20260504213307 | 69 | 220 | 3.0 | 11.0 | 0.00 | 0.00 | 0.00 | 59 | 1007.0 |
| 20260504212804 | 70 | 244 | 7.0 | 13.0 | 0.00 | 0.00 | 0.00 | 56 | 1006.9 |
| 20260504212300 | 70 | 207 | 9.0 | 13.0 | 0.00 | 0.00 | 0.00 | 57 | 1006.9 |
| 20260504211758 | 71 | 265 | 5.0 | 13.0 | 0.00 | 0.00 | 0.00 | 58 | 1007.2 |
| 20260504211254 | 71 | 246 | 5.0 | 17.0 | 0.00 | 0.00 | 0.00 | 56 | 1007.3 |
| 20260504210752 | 71 | 223 | 7.0 | 17.0 | 0.00 | 0.00 | 0.00 | 57 | 1007.5 |
| 20260504210249 | 71 | 131 | 4.0 | 18.0 | 0.00 | 0.00 | 0.00 | 58 | 1007.4 |
| 20260504205746 | 72 | 238 | 14.0 | 21.0 | 0.00 | 0.00 | 0.00 | 55 | 1007.1 |
| 20260504205243 | 72 | 265 | 10.0 | 15.0 | 0.00 | 0.00 | 0.00 | 56 | 1007.3 |
| 20260504204741 | 71 | 204 | 6.0 | 15.0 | 0.00 | 0.00 | 0.00 | 55 | 1007.4 |
| 20260504204239 | 72 | 243 | 5.0 | 9.0 | 0.00 | 0.00 | 0.00 | 57 | 1007.5 |
| 20260504203738 | 71 | 233 | 6.0 | 13.0 | 0.00 | 0.00 | 0.00 | 57 | 1007.3 |
| 20260504203235 | 73 | 222 | 11.0 | 18.0 | 0.00 | 0.00 | 0.00 | 55 | 1007.3 |
| 20260504202735 | 71 | 216 | 6.0 | 11.0 | 0.00 | 0.00 | 0.00 | 56 | 1007.6 |
| 20260504202233 | 73 | 213 | 6.0 | 14.0 | 0.00 | 0.00 | 0.00 | 56 | 1007.5 |
| 20260504201730 | 73 | 222 | 11.0 | 18.0 | 0.00 | 0.00 | 0.00 | 56 | 1007.4 |
| 20260504201227 | 73 | 196 | 4.0 | 13.0 | 0.00 | 0.00 | 0.00 | 58 | 1007.4 |
| 20260504200725 | 71 | 193 | 7.0 | 19.0 | 0.00 | 0.00 | 0.00 | 57 | 1007.6 |
| 20260504200220 | 71 | 210 | 2.0 | 11.0 | 0.00 | 0.00 | 0.00 | 57 | 1007.6 |
| 20260504195717 | 72 | 262 | 6.0 | 14.0 | 0.00 | 0.00 | 0.00 | 56 | 1007.6 |
| 20260504195213 | 72 | 233 | 3.0 | 13.0 | 0.00 | 0.00 | 0.00 | 57 | 1007.6 |
| 20260504194710 | 72 | 231 | 6.0 | 8.0 | 0.00 | 0.00 | 0.00 | 54 | 1007.6 |
| 20260504194206 | 71 | 192 | 3.0 | 10.0 | 0.00 | 0.00 | 0.00 | 55 | 1007.6 |
| 20260504193703 | 71 | 228 | 8.0 | 13.0 | 0.00 | 0.00 | 0.00 | 56 | 1007.9 |
| 20260504193201 | 73 | 184 | 5.0 | 14.0 | 0.00 | 0.00 | 0.00 | 55 | 1008.1 |
| 20260504192659 | 72 | 176 | 6.0 | 8.0 | 0.00 | 0.00 | 0.00 | 54 | 1008.1 |
| 20260504192156 | 72 | 187 | 6.0 | 10.0 | 0.00 | 0.00 | 0.00 | 57 | 1008.0 |
| 20260504191655 | 71 | 213 | 2.0 | 10.0 | 0.00 | 0.00 | 0.00 | 58 | 1007.8 |
| 20260504191150 | 72 | 216 | 3.0 | 7.0 | 0.00 | 0.00 | 0.00 | 57 | 1007.8 |
| 20260504190646 | 71 | 250 | 9.0 | 11.0 | 0.00 | 0.00 | 0.00 | 56 | 1007.8 |
| 20260504190143 | 71 | 222 | 4.0 | 13.0 | 0.00 | 0.00 | 0.00 | 59 | 1008.0 |
| 20260504185639 | 71 | 198 | 3.0 | 7.0 | 0.00 | 0.00 | 0.00 | 60 | 1008.0 |
| 20260504185136 | 71 | 218 | 7.0 | 8.0 | 0.00 | 0.00 | 0.00 | 57 | 1008.1 |
| 20260504184632 | 70 | 228 | 5.0 | 15.0 | 0.00 | 0.00 | 0.00 | 57 | 1008.3 |
| 20260504184127 | 70 | 190 | 4.0 | 9.0 | 0.00 | 0.00 | 0.00 | 59 | 1008.3 |
| 20260504183625 | 71 | 214 | 1.0 | 6.0 | 0.00 | 0.00 | 0.00 | 61 | 1008.1 |
| 20260504183122 | 71 | 191 | 1.0 | 9.0 | 0.00 | 0.00 | 0.00 | 60 | 1008.2 |
| 20260504182620 | 70 | 183 | 4.0 | 11.0 | 0.00 | 0.00 | 0.00 | 61 | 1008.3 |
| 20260504182117 | 69 | 233 | 4.0 | 8.0 | 0.00 | 0.00 | 0.00 | 61 | 1008.6 |
| 20260504181614 | 69 | 228 | 8.0 | 10.0 | 0.00 | 0.00 | 0.00 | 58 | 1008.6 |
| 20260504181112 | 69 | 199 | 5.0 | 11.0 | 0.00 | 0.00 | 0.00 | 59 | 1008.6 |
| 20260504180611 | 69 | 220 | 7.0 | 13.0 | 0.00 | 0.00 | 0.00 | 61 | 1008.7 |
| 20260504180109 | 68 | 192 | 6.0 | 14.0 | 0.00 | 0.00 | 0.00 | 61 | 1008.5 |
| 20260504175606 | 69 | 109 | 2.0 | 7.0 | 0.00 | 0.00 | 0.00 | 61 | 1008.7 |
| 20260504175103 | 70 | 149 | 1.0 | 9.0 | 0.00 | 0.00 | 0.00 | 60 | 1008.6 |
| 20260504174601 | 69 | 207 | 2.0 | 4.0 | 0.00 | 0.00 | 0.00 | 58 | 1008.5 |
| 20260504174057 | 68 | 187 | 1.0 | 8.0 | 0.00 | 0.00 | 0.00 | 61 | 1008.6 |
| 20260504173554 | 68 | 202 | 5.0 | 10.0 | 0.00 | 0.00 | 0.00 | 64 | 1008.7 |
| 20260504173052 | 68 | 224 | 4.0 | 9.0 | 0.00 | 0.00 | 0.00 | 64 | 1008.7 |
| 20260504172548 | 68 | 202 | 4.0 | 7.0 | 0.00 | 0.00 | 0.00 | 67 | 1008.7 |
| 20260504172044 | 67 | 199 | 1.0 | 9.0 | 0.00 | 0.00 | 0.00 | 68 | 1008.8 |
| 20260504171541 | 68 | 130 | 4.0 | 13.0 | 0.00 | 0.00 | 0.00 | 63 | 1008.8 |
| 20260504171038 | 67 | 222 | 4.0 | 7.0 | 0.00 | 0.00 | 0.00 | 63 | 1009.1 |
| 20260504170534 | 66 | 195 | 4.0 | 6.0 | 0.00 | 0.00 | 0.00 | 66 | 1009.0 |
| 20260504150918 | 63 | 190 | 2.0 | 10.0 | 0.00 | 0.00 | 0.00 | 64 | 1009.8 |
| 20260504150415 | 62 | 249 | 4.0 | 7.0 | 0.00 | 0.00 | 0.00 | 68 | 1009.7 |
| 20260504140841 | 60 | 195 | 5.0 | 9.0 | 0.00 | 0.00 | 0.00 | 62 | 1010.4 |
| 20260504140337 | 60 | 201 | 4.0 | 8.0 | 0.00 | 0.00 | 0.00 | 66 | 1010.3 |
| 20260504130805 | 57 | 184 | 7.0 | 9.0 | 0.00 | 0.00 | 0.00 | 63 | 1010.4 |
| 20260504130301 | 57 | 220 | 7.0 | 11.0 | 0.00 | 0.00 | 0.00 | 65 | 1010.6 |
| 20260504120220 | 51 | 214 | 2.0 | 4.0 | 0.00 | 0.00 | 0.00 | 73 | 1010.6 |
| 20260504110647 | 49 | 184 | 1.0 | 3.0 | 0.00 | 0.00 | 0.00 | 71 | 1010.2 |
| 20260504110143 | 49 | 179 | 0.0 | 3.0 | 0.00 | 0.00 | 0.00 | 71 | 1010.1 |
| 20260504100609 | 49 | 172 | 0.0 | 3.0 | 0.00 | 0.00 | 0.00 | 71 | 1010.4 |
| 20260504100108 | 49 | 157 | 2.0 | 4.0 | 0.00 | 0.00 | 0.00 | 70 | 1010.4 |